Location: *
(51.5000°N, 0.1100°W)
Time: 17:35:17
(UTC+00:00)

Geosat - Pass Details

Date: 25 May 2024
Orbit: 760 x 763 km, 108.1° (Epoch: 16 June)

Event Time Altitude Azimuth Distance (km) Brightness Sun altitude
Rises 02:48:18 0° 141° (SE) 3,215 7.1 -8.4°
Reaches altitude 10° 02:50:34 10° 139° (SE) 2,293 6.4 -8.2°
Maximum altitude 02:55:33 73° 55° (NE) 801 4.3 -7.7°
Drops below altitude 10° 03:00:34 10° 332° (NNW) 2,310 6.8 -7.1°
Sets 03:02:51 0° 331° (NNW) 3,240 7.5 -6.9°
